| time (UTC) | temp F | wind direction | speed MPH | gust MPH | rain 1hr in | rain 24hr in | rain mn in | humidity % | barometer mb |
| 20260504081540 | 43 | 79 | 0.0 | 4.0 | 0.00 | 0.00 | 0.00 | 46 | 1010.6 |
| 20260504044536 | 43 | 0 | 0.0 | 0.0 | 0.00 | 0.00 | 0.00 | 42 | 1010.4 |
| 20260504043043 | 43 | 0 | 0.0 | 2.0 | 0.00 | 0.00 | 0.00 | 42 | 1010.6 |
| 20260504041544 | 43 | 0 | 0.0 | 0.0 | 0.00 | 0.00 | 0.00 | 41 | 1010.6 |
| 20260504040044 | 44 | 0 | 0.0 | 0.0 | 0.00 | 0.00 | 0.00 | 42 | 1010.2 |
| 20260504034544 | 44 | 0 | 0.0 | 1.0 | 0.00 | 0.00 | 0.00 | 42 | 1010.3 |
| 20260504033034 | 45 | 0 | 0.0 | 1.0 | 0.00 | 0.00 | 0.00 | 42 | 1010.2 |
| 20260504031535 | 45 | 261 | 0.0 | 2.0 | 0.00 | 0.00 | 0.00 | 41 | 1010.2 |
| 20260504030036 | 46 | 0 | 0.0 | 3.0 | 0.00 | 0.00 | 0.00 | 39 | 1010.1 |
| 20260504024540 | 46 | 0 | 0.0 | 3.0 | 0.00 | 0.00 | 0.00 | 38 | 1010.0 |
| 20260504023036 | 47 | 0 | 0.0 | 3.0 | 0.00 | 0.00 | 0.00 | 37 | 1010.0 |
| 20260504021539 | 47 | 248 | 0.0 | 3.0 | 0.00 | 0.00 | 0.00 | 36 | 1010.1 |
| 20260504020038 | 47 | 257 | 0.0 | 2.0 | 0.00 | 0.00 | 0.00 | 35 | 1010.0 |
| 20260504014537 | 47 | 0 | 1.0 | 7.0 | 0.00 | 0.00 | 0.00 | 34 | 1009.9 |
| 20260504013055 | 47 | 0 | 0.0 | 2.0 | 0.00 | 0.00 | 0.00 | 31 | 1009.8 |
| 20260504011539 | 47 | 284 | 0.0 | 3.0 | 0.00 | 0.00 | 0.00 | 30 | 1009.6 |
| 20260504010040 | 47 | 247 | 0.0 | 2.0 | 0.00 | 0.00 | 0.00 | 28 | 1009.3 |
| 20260504004535 | 48 | 0 | 0.0 | 6.0 | 0.00 | 0.00 | 0.00 | 27 | 1009.1 |
| 20260504003033 | 48 | 0 | 0.0 | 2.0 | 0.00 | 0.00 | 0.00 | 27 | 1009.0 |
| 20260504001543 | 49 | 0 | 0.0 | 4.0 | 0.00 | 0.00 | 0.00 | 26 | 1008.7 |
| 20260504000041 | 49 | 232 | 0.0 | 7.0 | 0.00 | 0.00 | 0.00 | 26 | 1008.5 |
| 20260503234535 | 50 | 274 | 0.0 | 3.0 | 0.00 | 0.00 | 0.00 | 24 | 1008.5 |
| 20260503233035 | 50 | 0 | 0.0 | 6.0 | 0.00 | 0.00 | 0.00 | 23 | 1008.2 |
| 20260503231534 | 50 | 276 | 1.0 | 6.0 | 0.00 | 0.00 | 0.00 | 22 | 1008.1 |
| 20260503230042 | 50 | 51 | 3.0 | 9.0 | 0.00 | 0.00 | 0.00 | 21 | 1008.0 |
| 20260503224540 | 51 | 14 | 1.0 | 9.0 | 0.00 | 0.00 | 0.00 | 21 | 1008.0 |
| 20260503223035 | 51 | 231 | 3.0 | 8.0 | 0.00 | 0.00 | 0.00 | 22 | 1008.0 |
| 20260503221535 | 51 | 248 | 1.0 | 6.0 | 0.00 | 0.00 | 0.00 | 25 | 1007.8 |
| 20260503220035 | 51 | 232 | 3.0 | 7.0 | 0.00 | 0.00 | 0.00 | 24 | 1007.9 |
| 20260503214539 | 51 | 55 | 5.0 | 12.0 | 0.00 | 0.00 | 0.00 | 23 | 1007.8 |
| 20260503213035 | 52 | 225 | 2.0 | 10.0 | 0.00 | 0.00 | 0.00 | 24 | 1007.9 |
| 20260503211539 | 51 | 38 | 4.0 | 12.0 | 0.00 | 0.00 | 0.00 | 24 | 1008.0 |
| 20260503210036 | 52 | 30 | 4.0 | 12.0 | 0.00 | 0.00 | 0.00 | 25 | 1007.6 |
| 20260503204534 | 51 | 87 | 1.0 | 15.0 | 0.00 | 0.00 | 0.00 | 26 | 1007.8 |
| 20260503203044 | 50 | 257 | 3.0 | 11.0 | 0.00 | 0.00 | 0.00 | 25 | 1007.9 |
| 20260503201534 | 50 | 253 | 3.0 | 9.0 | 0.00 | 0.00 | 0.00 | 25 | 1007.9 |
| 20260503200040 | 49 | 29 | 4.0 | 19.0 | 0.00 | 0.00 | 0.00 | 27 | 1008.0 |
| 20260503194538 | 48 | 46 | 4.0 | 19.0 | 0.00 | 0.00 | 0.00 | 28 | 1008.2 |
| 20260503193044 | 48 | 273 | 3.0 | 14.0 | 0.00 | 0.00 | 0.00 | 28 | 1008.3 |
| 20260503191601 | 49 | 324 | 3.0 | 12.0 | 0.00 | 0.00 | 0.00 | 27 | 1008.2 |
| 20260503190035 | 49 | 286 | 7.0 | 17.0 | 0.00 | 0.00 | 0.00 | 26 | 1008.3 |
| 20260503184540 | 50 | 240 | 3.0 | 12.0 | 0.00 | 0.00 | 0.00 | 27 | 1008.2 |
| 20260503183035 | 48 | 30 | 2.0 | 13.0 | 0.00 | 0.00 | 0.00 | 29 | 1008.3 |
| 20260503181548 | 49 | 243 | 5.0 | 14.0 | 0.00 | 0.00 | 0.00 | 26 | 1008.3 |
| 20260503180045 | 49 | 44 | 4.0 | 16.0 | 0.00 | 0.00 | 0.00 | 30 | 1008.2 |
| 20260503174547 | 49 | 58 | 3.0 | 17.0 | 0.00 | 0.00 | 0.00 | 28 | 1008.0 |
| 20260503173038 | 50 | 191 | 2.0 | 11.0 | 0.00 | 0.00 | 0.00 | 26 | 1007.9 |
| 20260503171534 | 48 | 278 | 2.0 | 12.0 | 0.00 | 0.00 | 0.00 | 28 | 1008.1 |